[[{"header":{"parameterUnit":"m.s-1","parameterCategory":1,"la1":30.2991,"la2":30.254,"lo1":-89.0895,"lo2":-89.0444,"dy":0.0017,"dx":0.0017,"nx":28,"ny":28,"refTime":"2025-05-19T03:00:00:Z","depth":0,"parameterNumber":2,"parameterNumberName":"U-component_of_WINDS"},"data":[0,0,0,0,0,0,0,0,0,0,0,0,0,0,0,0,0,0,0,0,0,0,0,0,0,0,0,0,0,0,0,0,0,0,0,0,0,0,0,0,0,0,0,0,0,0,0,0,0,0,0,0,0,0,0,0,0,0,-0.7718,-0.7718,0,-0.7693,-0.7693,-0.7693,-0.7666,-0.7666,-0.7666,-0.7665,-0.7639,-0.7639,-0.7638,0,0,0,0,0,0,0,0,0,0,0,0,0,-0.7743,-0.7743,-0.7718,-0.7718,-0.7718,-0.7693,-0.7693,-0.7693,-0.7666,-0.7666,-0.7666,-0.7665,-0.7639,-0.7639,-0.7638,0,0,0,0,0,0,0,0,0,0,0,0,0,-0.7727,-0.7743,-0.7718,-0.7702,-0.77,-0.7693,-0.7693,-0.7692,-0.7667,-0.7666,-0.7665,-0.7665,-0.7639,-0.7639,-0.7638,-0.7646,0,0,-0.7636,-0.7636,0,0,0,0,0,0,0,0,-0.7728,-0.7726,-0.7704,-0.7703,-0.7701,-0.7682,-0.7692,-0.7677,-0.7667,-0.7679,-0.7665,-0.7665,-0.7654,-0.7652,-0.7648,-0.7644,-0.7643,-0.7636,-0.7636,-0.7636,-0.7636,0,0,0,0,0,0,0,-0.7729,-0.7727,-0.7708,-0.7704,-0.7702,-0.7696,-0.7693,-0.7689,-0.767,-0.7678,-0.7676,-0.7674,-0.7653,-0.7649,-0.7648,-0.7643,-0.7636,-0.7636,-0.7636,-0.7635,-0.7645,-0.7645,0,0,0,0,0,0,-0.7733,-0.7728,-0.7709,-0.7708,-0.7713,-0.7696,-0.7692,-0.7689,-0.767,-0.7666,-0.7674,-0.7672,-0.765,-0.7648,-0.7647,-0.7654,-0.7636,-0.7635,-0.7635,-0.7644,-0.7645,-0.7646,0,0,0,0,0,0,-0.7733,-0.7731,-0.771,-0.7717,-0.7714,-0.7696,-0.7692,-0.7689,-0.7685,-0.7667,-0.7663,-0.7674,-0.765,-0.7647,-0.7646,-0.7653,-0.7635,-0.7635,-0.7644,-0.7644,-0.7645,-0.767,0,0,0,0,0,0,-0.7734,-0.7732,-0.7734,-0.7718,-0.7714,-0.771,-0.7693,-0.7689,-0.7684,-0.7682,-0.7666,-0.7662,-0.7649,-0.7647,-0.7646,-0.7652,-0.7634,-0.7643,-0.7644,-0.7645,-0.7668,-0.7672,-0.7674,0,0,0,0,0,-0.7735,-0.7742,-0.7734,-0.7732,-0.7717,-0.7711,-0.7708,-0.7693,-0.7685,-0.7687,-0.7676,-0.7663,-0.7653,-0.7647,-0.7646,-0.7652,-0.7642,-0.7644,-0.7645,-0.7667,-0.7671,-0.7674,0,0,0,0,0,0,-0.7759,-0.7739,-0.7731,-0.7732,-0.7723,-0.7706,-0.7709,-0.7698,-0.7691,-0.7689,-0.767,-0.7667,-0.7668,-0.766,-0.7654,-0.7659,-0.7646,-0.7647,-0.7663,-0.7667,-0.767,-0.7671,-0.7634,0,0,0,0,0,-0.7765,-0.7761,-0.7744,-0.7747,-0.7743,-0.7727,-0.7724,-0.7713,-0.7703,-0.7699,-0.7687,-0.7678,-0.7673,-0.767,-0.7664,-0.7668,-0.7664,-0.7671,-0.7674,-0.7677,-0.7677,-0.7679,-0.7682,-0.765,-0.765,-0.765,0,0,-0.7776,-0.7765,-0.7763,-0.7752,-0.7744,-0.7741,-0.7724,-0.7721,-0.7719,-0.7698,-0.7697,-0.7688,-0.7677,-0.7678,-0.7678,-0.7671,-0.7686,-0.7678,-0.768,-0.768,-0.7681,-0.7684,-0.7687,-0.7651,-0.765,-0.765,0,0,-0.7794,-0.7786,-0.7787,-0.778,-0.7768,-0.7757,-0.7758,-0.7743,-0.7736,-0.7735,-0.7719,-0.7717,-0.7708,-0.77,-0.7696,-0.7714,-0.7701,-0.7712,-0.7727,-0.7729,-0.7732,-0.7734,-0.774,-0.7742,-0.7713,-0.7713,-0.7713,0,-0.7809,-0.7804,-0.7789,-0.7788,-0.7784,-0.7766,-0.7768,-0.7761,-0.7748,-0.7745,-0.7738,-0.7728,-0.7718,-0.7718,-0.7723,-0.772,-0.772,-0.7713,-0.7732,-0.7734,-0.7736,-0.7742,-0.7744,-0.7715,-0.7715,-0.7714,-0.7714,0,-0.7824,-0.7821,-0.7824,-0.7812,-0.7808,-0.7808,-0.7793,-0.7791,-0.7782,-0.7772,-0.7771,-0.776,-0.7751,-0.7751,-0.7741,-0.775,-0.7746,-0.7736,-0.7723,-0.7741,-0.7746,-0.7748,-0.7717,-0.7716,-0.7716,-0.7715,0,0,-0.7855,-0.7836,-0.7837,-0.7832,-0.7819,-0.7816,-0.7816,-0.7809,-0.7807,-0.7799,-0.7799,-0.7793,-0.7784,-0.7779,-0.7768,-0.777,-0.7785,-0.776,-0.7759,-0.7764,-0.7794,-0.7801,-0.7804,-0.7778,-0.7778,-0.7778,-0.7795,0,-0.7871,-0.7869,-0.7856,-0.7859,-0.7856,-0.784,-0.784,-0.7832,-0.7823,-0.782,-0.781,-0.7806,-0.7795,-0.7792,-0.7793,-0.7783,-0.779,-0.7782,-0.7776,-0.7776,-0.7779,-0.7806,-0.7813,-0.7829,-0.7797,-0.7797,-0.7797,0,-0.7888,-0.7882,-0.7884,-0.7872,-0.787,-0.787,-0.7863,-0.786,-0.7851,-0.7845,-0.784,-0.7828,-0.7827,-0.7816,-0.7815,-0.7809,-0.7807,-0.7802,-0.7802,-0.78,-0.7787,-0.7804,-0.7834,-0.7836,-0.78,-0.78,-0.78,0,-0.791,-0.7903,-0.7903,-0.7899,-0.7885,-0.7885,-0.7879,-0.787,-0.7867,-0.786,-0.7858,-0.7852,-0.7848,-0.7844,-0.7831,-0.7824,-0.7832,-0.7819,-0.7826,-0.7827,-0.7828,-0.7827,-0.7856,-0.7828,-0.7828,-0.7828,-0.7827,0,-0.7928,-0.793,-0.7913,-0.7913,-0.7915,-0.7901,-0.7903,-0.7896,-0.7888,-0.7886,-0.7872,-0.7871,-0.7855,-0.7853,-0.7843,-0.7843,-0.7842,-0.7837,-0.7834,-0.7838,-0.7838,-0.7835,-0.7833,-0.7828,-0.7828,-0.7828,-0.7828,0,-0.7953,-0.7941,-0.794,-0.7927,-0.7924,-0.7926,-0.7915,-0.7915,-0.7906,-0.7905,-0.7904,-0.789,-0.7886,-0.7873,-0.7866,-0.786,-0.7863,-0.7859,-0.7866,-0.7865,-0.7872,-0.7871,-0.7899,-0.7902,-0.7872,-0.7873,-0.7873,0,-0.7965,-0.7966,-0.7953,-0.7951,-0.7946,-0.7944,-0.794,-0.7927,-0.7925,-0.7915,-0.7916,-0.7912,-0.7907,-0.7902,-0.7891,-0.7886,-0.7881,-0.7891,-0.788,-0.7883,-0.788,-0.788,-0.788,-0.7893,-0.7893,-0.7894,-0.7894,0,-0.7987,-0.7982,-0.7978,-0.7972,-0.7969,-0.7964,-0.7958,-0.7958,-0.7943,-0.7941,-0.7937,-0.7934,-0.7927,-0.7923,-0.7916,-0.791,-0.7899,-0.7898,-0.7899,-0.7902,-0.7906,-0.7904,-0.7872,-0.7897,-0.7896,-0.7896,-0.7896,-0.7896,-0.8005,-0.8005,-0.7997,-0.7993,-0.7988,-0.7983,-0.7982,-0.7974,-0.7971,-0.7965,-0.7957,-0.7955,-0.7947,-0.7937,-0.7932,-0.793,-0.7924,-0.7926,-0.7926,-0.7926,-0.7928,-0.7908,-0.7929,-0.7928,-0.7928,-0.7928,-0.7928,0,-0.8026,-0.802,-0.8017,-0.801,-0.8007,-0.7999,-0.7992,-0.799,-0.7988,-0.7982,-0.7978,-0.7974,-0.7971,-0.796,-0.7955,-0.7956,-0.7951,-0.7955,-0.7954,-0.7953,-0.7934,-0.7933,-0.7959,-0.7959,-0.7959,-0.7959,-0.7959,-0.7959,-0.8037,-0.8037,-0.8031,-0.8029,-0.8023,-0.8021,-0.8018,-0.8013,-0.8008,-0.8005,-0.8002,-0.7995,-0.7988,-0.7982,-0.7979,-0.7976,-0.7974,-0.798,-0.7975,-0.7957,-0.7954,-0.7951,-0.795,-0.798,-0.798,-0.7995,-0.7995,-0.7995]},{"header":{"parameterUnit":"m.s-1","parameterCategory":1,"la1":30.2991,"la2":30.254,"lo1":-89.0895,"lo2":-89.0444,"dy":0.0017,"dx":0.0017,"nx":28,"ny":28,"refTime":"2025-05-19T03:00:00:Z","depth":0,"parameterNumber":3,"parameterNumberName":"V-component_of_WINDS"},"data":[0,0,0,0,0,0,0,0,0,0,0,0,0,0,0,0,0,0,0,0,0,0,0,0,0,0,0,0,0,0,0,0,0,0,0,0,0,0,0,0,0,0,0,0,0,0,0,0,0,0,0,0,0,0,0,0,0,0,3.2674,3.2674,0,3.2663,3.2663,3.2663,3.269,3.269,3.2691,3.2692,3.2677,3.2675,3.2674,0,0,0,0,0,0,0,0,0,0,0,0,0,3.2713,3.2713,3.2674,3.2674,3.2674,3.2663,3.2663,3.2663,3.2689,3.269,3.2691,3.2692,3.2677,3.2676,3.2674,0,0,0,0,0,0,0,0,0,0,0,0,0,3.2699,3.2712,3.2674,3.2686,3.2687,3.2664,3.2663,3.2663,3.2689,3.269,3.2692,3.2693,3.2677,3.2676,3.2674,3.2637,0,0,3.2668,3.2668,0,0,0,0,0,0,0,0,3.27,3.2697,3.2684,3.2685,3.2686,3.2679,3.2672,3.2654,3.2689,3.2688,3.2692,3.2693,3.2676,3.2674,3.267,3.2637,3.2636,3.2668,3.2667,3.2666,3.2666,0,0,0,0,0,0,0,3.2701,3.2698,3.267,3.2684,3.2685,3.269,3.269,3.2668,3.2675,3.2688,3.269,3.2689,3.2677,3.2671,3.2669,3.2636,3.2668,3.2667,3.2666,3.2665,3.2573,3.2572,0,0,0,0,0,0,3.2701,3.2699,3.267,3.2669,3.2696,3.2689,3.2688,3.268,3.2675,3.2676,3.2688,3.269,3.2674,3.2671,3.2669,3.2627,3.2666,3.2665,3.2664,3.2575,3.2573,3.2572,0,0,0,0,0,0,3.2701,3.2698,3.2671,3.2685,3.2682,3.2687,3.2678,3.2679,3.2674,3.2675,3.2676,3.2681,3.2675,3.2671,3.2646,3.2626,3.2664,3.2662,3.2576,3.2574,3.2572,3.2541,0,0,0,0,0,0,3.2702,3.2698,3.2685,3.2684,3.2681,3.2648,3.2676,3.2678,3.2671,3.2674,3.2669,3.2669,3.2675,3.2648,3.2644,3.2625,3.2661,3.2578,3.2575,3.2573,3.2544,3.2538,3.2533,0,0,0,0,0,3.2704,3.2675,3.2684,3.2681,3.2665,3.2647,3.2645,3.2654,3.2669,3.2656,3.2657,3.2669,3.2629,3.2645,3.2641,3.262,3.2579,3.2576,3.2573,3.2546,3.2539,3.2534,0,0,0,0,0,0,3.2672,3.2675,3.2685,3.2656,3.2651,3.2652,3.2635,3.2646,3.2636,3.2639,3.2649,3.2647,3.262,3.2617,3.2635,3.2585,3.2607,3.2603,3.2588,3.2581,3.2576,3.2577,3.2659,0,0,0,0,0,3.2662,3.2649,3.2652,3.2626,3.2623,3.2629,3.2622,3.2629,3.2624,3.2622,3.2621,3.2614,3.26,3.2591,3.2578,3.2544,3.2543,3.2528,3.2523,3.2518,3.2514,3.2497,3.249,3.2562,3.2562,3.2562,0,0,3.264,3.264,3.2631,3.2619,3.2617,3.2602,3.2627,3.261,3.2599,3.2619,3.2595,3.2594,3.2587,3.2557,3.2544,3.2555,3.2495,3.2514,3.2511,3.2509,3.2493,3.2486,3.248,3.256,3.256,3.256,0,0,3.2593,3.2592,3.2571,3.2568,3.2564,3.2569,3.2564,3.2563,3.2563,3.254,3.2555,3.2541,3.2517,3.2512,3.2506,3.2458,3.2469,3.2454,3.2426,3.2409,3.2403,3.2398,3.2381,3.2375,3.245,3.245,3.245,0,3.2566,3.2545,3.2558,3.254,3.2534,3.2554,3.2532,3.2528,3.2519,3.2514,3.2527,3.2498,3.2494,3.2464,3.2453,3.2447,3.2441,3.2454,3.2403,3.2398,3.2394,3.2378,3.2372,3.2448,3.2448,3.2448,3.2448,0,3.2513,3.2498,3.2481,3.2475,3.2467,3.2447,3.2455,3.2446,3.2454,3.2457,3.2433,3.243,3.2418,3.2411,3.2418,3.2382,3.2389,3.2402,3.2423,3.2385,3.237,3.2364,3.2445,3.2446,3.2446,3.2447,0,0,3.2444,3.2446,3.2439,3.2437,3.2435,3.2423,3.2404,3.2394,3.2386,3.2379,3.2363,3.2343,3.2356,3.2349,3.2356,3.2341,3.2304,3.2356,3.2356,3.2347,3.2264,3.2253,3.2246,3.2312,3.231,3.231,3.2264,0,3.2398,3.2367,3.2378,3.2346,3.2333,3.2351,3.2335,3.2331,3.2334,3.2322,3.2324,3.231,3.2328,3.2324,3.231,3.2311,3.2287,3.2315,3.2296,3.2295,3.2297,3.2238,3.2227,3.2185,3.2258,3.2257,3.2257,0,3.234,3.2333,3.23,3.2302,3.2297,3.2282,3.2273,3.2262,3.2258,3.2261,3.2255,3.2265,3.2245,3.2268,3.2241,3.2259,3.2252,3.2252,3.225,3.2249,3.2273,3.2235,3.2171,3.2165,3.2248,3.2248,3.2249,0,3.2293,3.2276,3.2255,3.2252,3.2253,3.2242,3.2241,3.2239,3.2232,3.2225,3.222,3.221,3.2204,3.2195,3.2202,3.2217,3.2174,3.2196,3.2175,3.2175,3.2164,3.2165,3.2099,3.216,3.216,3.216,3.216,0,3.2241,3.222,3.2234,3.2221,3.2198,3.221,3.2187,3.2188,3.2186,3.2173,3.2188,3.2175,3.2185,3.2172,3.2178,3.2155,3.2152,3.2153,3.2155,3.2152,3.2152,3.2147,3.215,3.2159,3.2159,3.2159,3.216,0,3.2184,3.2193,3.2171,3.2175,3.2175,3.2158,3.216,3.2147,3.2152,3.2135,3.2131,3.2137,3.2124,3.213,3.2115,3.2119,3.2089,3.2095,3.2091,3.2092,3.2071,3.2073,3.1999,3.199,3.2057,3.2056,3.2056,0,3.215,3.2135,3.2137,3.213,3.213,3.2118,3.2112,3.2123,3.2116,3.2111,3.2099,3.2087,3.2078,3.2055,3.2057,3.2046,3.2051,3.2026,3.2049,3.2047,3.2051,3.2052,3.205,3.2021,3.202,3.202,3.2019,0,3.2088,3.2094,3.2085,3.2078,3.2071,3.2066,3.2061,3.2054,3.2066,3.2057,3.2044,3.2037,3.2023,3.2011,3.2001,3.1999,3.2011,3.2012,3.2007,3.2003,3.2002,3.2003,3.2078,3.2013,3.2014,3.2014,3.2015,3.2015,3.2042,3.203,3.203,3.202,3.2019,3.2015,3.2003,3.2007,3.1997,3.1988,3.1995,3.1979,3.1976,3.1965,3.1962,3.195,3.1959,3.1951,3.1949,3.1947,3.1944,3.2004,3.1948,3.1948,3.1948,3.1948,3.1948,0,3.1982,3.1983,3.1974,3.1969,3.196,3.1974,3.197,3.1962,3.1949,3.1946,3.1938,3.1923,3.1912,3.1914,3.1903,3.1893,3.1898,3.1889,3.189,3.189,3.1936,3.1942,3.1886,3.1886,3.1886,3.1886,3.1886,3.1886,3.1949,3.1929,3.1935,3.1914,3.1916,3.1902,3.1899,3.1895,3.1893,3.1877,3.1868,3.187,3.1869,3.1859,3.1848,3.1849,3.1845,3.1834,3.1837,3.188,3.1886,3.1892,3.1898,3.1833,3.1833,3.1792,3.1791,3.1791]}]]